2010 OR1

Japanese version
Home page
Updated on March 6, 2011

---------------------------------------------------------------------

* Profile

Discovery Date July 16, 2010
Magnitude 19 mag
Discoverer Wide Field Infrared Survey Explorer (NASA)

* Orbital Elements

Epoch 2010 July 23.0 TT = JDT 2455400.5                 MPC
M   0.07299              (2000.0)            P               Q
n   0.00692388     Peri.  139.73308     +0.91871474     +0.08711432
a  27.2627430      Node   139.22884     -0.24617189     -0.63636268
e   0.9247467      Incl.  143.85379     +0.30880840     -0.76645524
P 142.35           H   16.0           G   0.15           U   1

* Magnitudes Graph

        H = 15.9  G = 0.15

---------------------------------------------------------------------

The orbital elements are published on M.P.E.C. 2010-Q40.
The magnitudes graphs are made with Comet for Windows.

---------------------------------------------------------------------

Copyright(C) Seiichi Yoshida (comet@aerith.net). All rights reserved.